QPF
0.01 0.01 0.01 0.01 0.00 0.00 0.01 0.01 0.02 0.02 0.03 0.04 0.04 0.02 0.03 0.03 0.03 0.03 0.03 0.03 0.03 0.04 0.04 0.04 0.04 0.03 0.04 0.04 0.05 0.05 0.06 0.08 0.09 0.06 0.03 0.03 0.04 0.05 0.05 0.04 0.04 0.04 0.03
0.01 0.01 0.01 0.00 0.00 0.00 0.01 0.01 0.01 0.02 0.03 0.04 0.04 0.03 0.02 0.02 0.03 0.03 0.03 0.03 0.03 0.03 0.04 0.05 0.05 0.05 0.05 0.04 0.06 0.07 0.07 0.07 0.07 0.06 0.04 0.04 0.04 0.04 0.05 0.05 0.05 0.05 0.04
0.01 0.01 0.00 0.00 0.00 0.00 0.00 0.00 0.01 0.01 0.02 0.03 0.04 0.04 0.02 0.03 0.03 0.02 0.02 0.02 0.03 0.03 0.04 0.05 0.05 0.05 0.05 0.05 0.05 0.05 0.07 0.08 0.09 0.08 0.06 0.05 0.05 0.04 0.05 0.05 0.05 0.06 0.05
0.01 0.01 0.00 0.00 0.00 0.00 0.00 0.00 0.01 0.02 0.02 0.02 0.03 0.04 0.03 0.02 0.03 0.03 0.03 0.02 0.03 0.03 0.04 0.04 0.05 0.05 0.05 0.04 0.05 0.05 0.06 0.08 0.09 0.09 0.09 0.06 0.06 0.04 0.04 0.04 0.05 0.06 0.06
0.01 0.01 0.00 0.00 0.00 0.00 0.00 0.00 0.00 0.01 0.02 0.03 0.04 0.05 0.04 0.03 0.02 0.02 0.02 0.03 0.03 0.03 0.03 0.04 0.04 0.05 0.05 0.05 0.05 0.05 0.07 0.08 0.09 0.09 0.10 0.08 0.08 0.06 0.05 0.03 0.03 0.05 0.06
0.01 0.00 0.00 0.00 0.00 0.00 0.00 0.00 0.01 0.01 0.01 0.02 0.03 0.04 0.04 0.03 0.03 0.03 0.03 0.03 0.02 0.02 0.03 0.03 0.04 0.05 0.05 0.05 0.05 0.05 0.07 0.08 0.09 0.09 0.10 0.08 0.07 0.07 0.06 0.04 0.04 0.05 0.06
0.00 0.00 0.00 0.00 0.01 0.01 0.01 0.01 0.01 0.01 0.01 0.02 0.02 0.03 0.03 0.03 0.03 0.03 0.03 0.03 0.02 0.02 0.03 0.03 0.03 0.04 0.04 0.04 0.04 0.05 0.06 0.07 0.08 0.08 0.09 0.08 0.06 0.06 0.05 0.05 0.04 0.05 0.05
0.00 0.00 0.00 0.00 0.01 0.01 0.01 0.01 0.01 0.01 0.01 0.02 0.02 0.02 0.03 0.03 0.03 0.03 0.04 0.04 0.03 0.03 0.04 0.04 0.04 0.04 0.04 0.04 0.04 0.04 0.05 0.06 0.06 0.06 0.06 0.06 0.05 0.05 0.05 0.05 0.05 0.05 0.06
0.00 0.00 0.00 0.00 0.01 0.01 0.01 0.01 0.01 0.01 0.01 0.01 0.02 0.02 0.03 0.03 0.03 0.04 0.04 0.05 0.05 0.05 0.05 0.05 0.04 0.04 0.04 0.04 0.04 0.04 0.05 0.06 0.07 0.06 0.05 0.05 0.04 0.04 0.04 0.05 0.05 0.06 0.06
0.00 0.00 0.00 0.01 0.01 0.01 0.01 0.01 0.02 0.01 0.01 0.02 0.02 0.02 0.03 0.04 0.05 0.05 0.05 0.05 0.05 0.04 0.04 0.04 0.04 0.04 0.04 0.04 0.04 0.04 0.05 0.05 0.06 0.06 0.05 0.05 0.04 0.04 0.03 0.03 0.04 0.06 0.06
0.00 0.00 0.01 0.01 0.01 0.01 0.01 0.01 0.02 0.02 0.02 0.02 0.02 0.03 0.03 0.04 0.05 0.05 0.05 0.05 0.05 0.04 0.03 0.03 0.04 0.03 0.03 0.03 0.04 0.04 0.03 0.04 0.05 0.06 0.05 0.06 0.06 0.05 0.04 0.02 0.03 0.05 0.06
0.00 0.00 0.01 0.01 0.01 0.01 0.01 0.01 0.02 0.02 0.02 0.03 0.03 0.03 0.03 0.04 0.05 0.06 0.06 0.05 0.05 0.04 0.04 0.04 0.04 0.04 0.03 0.03 0.03 0.03 0.03 0.03 0.04 0.06 0.05 0.06 0.06 0.07 0.05 0.03 0.02 0.02 0.04
0.01 0.01 0.01 0.01 0.01 0.01 0.01 0.01 0.02 0.02 0.03 0.02 0.02 0.03 0.03 0.04 0.04 0.05 0.05 0.05 0.04 0.04 0.04 0.04 0.04 0.03 0.03 0.03 0.02 0.03 0.03 0.03 0.04 0.05 0.05 0.04 0.04 0.05 0.05 0.04 0.03 0.02 0.03
0.01 0.01 0.01 0.01 0.01 0.02 0.02 0.02 0.02 0.02 0.02 0.02 0.02 0.02 0.02 0.03 0.03 0.04 0.05 0.05 0.04 0.04 0.03 0.03 0.03 0.03 0.02 0.02 0.02 0.02 0.02 0.03 0.03 0.03 0.03 0.03 0.03 0.04 0.05 0.05 0.04 0.03 0.03
0.01 0.01 0.01 0.02 0.01 0.01 0.02 0.02 0.02 0.02 0.02 0.02 0.02 0.02 0.02 0.03 0.03 0.04 0.04 0.05 0.04 0.04 0.04 0.03 0.03 0.02 0.02 0.02 0.02 0.02 0.02 0.02 0.03 0.03 0.03 0.03 0.03 0.04 0.05 0.05 0.04 0.04 0.04
0.02 0.02 0.02 0.02 0.02 0.02 0.02 0.03 0.03 0.02 0.02 0.03 0.03 0.03 0.03 0.02 0.03 0.03 0.04 0.04 0.04 0.04 0.04 0.03 0.02 0.02 0.02 0.02 0.01 0.02 0.02 0.02 0.02 0.03 0.03 0.03 0.03 0.03 0.03 0.04 0.05 0.04 0.04
0.02 0.02 0.02 0.02 0.02 0.02 0.02 0.02 0.02 0.03 0.03 0.03 0.03 0.03 0.03 0.03 0.03 0.03 0.04 0.04 0.04 0.03 0.03 0.02 0.02 0.02 0.02 0.02 0.02 0.02 0.02 0.02 0.02 0.02 0.02 0.02 0.02 0.02 0.03 0.03 0.04 0.04 0.04
0.02 0.02 0.02 0.02 0.02 0.02 0.02 0.02 0.02 0.02 0.03 0.03 0.03 0.03 0.03 0.03 0.03 0.03 0.03 0.03 0.03 0.03 0.02 0.02 0.02 0.01 0.01 0.01 0.02 0.02 0.02 0.02 0.02 0.02 0.02 0.02 0.02 0.02 0.02 0.03 0.03 0.04 0.04
0.02 0.02 0.02 0.02 0.02 0.02 0.02 0.02 0.02 0.02 0.02 0.02 0.03 0.04 0.03 0.03 0.03 0.03 0.02 0.02 0.02 0.02 0.02 0.02 0.01 0.01 0.01 0.01 0.01 0.01 0.02 0.02 0.02 0.02 0.02 0.02 0.03 0.03 0.03 0.03 0.02 0.03 0.03
0.02 0.02 0.02 0.02 0.02 0.02 0.02 0.03 0.03 0.02 0.02 0.02 0.02 0.02 0.03 0.03 0.03 0.03 0.02 0.02 0.02 0.01 0.01 0.01 0.01 0.01 0.01 0.01 0.01 0.01 0.01 0.02 0.02 0.02 0.02 0.02 0.02 0.03 0.03 0.03 0.03 0.03 0.03
0.02 0.02 0.02 0.02 0.02 0.02 0.03 0.03 0.03 0.02 0.02 0.02 0.02 0.02 0.02 0.02 0.02 0.02 0.02 0.02 0.01 0.01 0.01 0.01 0.01 0.01 0.01 0.01 0.01 0.01 0.01 0.02 0.02 0.02 0.02 0.02 0.02 0.02 0.02 0.03 0.03 0.03 0.03
0.02 0.03 0.03 0.03 0.03 0.03 0.03 0.03 0.03 0.02 0.02 0.02 0.02 0.02 0.01 0.01 0.01 0.01 0.01 0.01 0.01 0.01 0.01 0.01 0.01 0.01 0.01 0.01 0.01 0.01 0.01 0.01 0.01 0.02 0.02 0.02 0.02 0.02 0.02 0.02 0.02 0.03 0.03
0.02 0.03 0.03 0.03 0.03 0.03 0.03 0.02 0.02 0.02 0.02 0.02 0.01 0.01 0.01 0.01 0.01 0.01 0.01 0.01 0.01 0.01 0.01 0.01 0.01 0.01 0.01 0.01 0.01 0.01 0.01 0.01 0.01 0.01 0.02 0.02 0.02 0.02 0.02 0.02 0.02 0.02 0.03
0.02 0.03 0.03 0.03 0.03 0.02 0.02 0.02 0.02 0.02 0.02 0.01 0.01 0.01 0.01 0.01 0.01 0.01 0.01 0.01 0.01 0.01 0.01 0.01 0.01 0.01 0.01 0.01 0.01 0.01 0.01 0.01 0.01 0.02 0.02 0.02 0.02 0.02 0.02 0.02 0.02 0.02 0.02
0.02 0.03 0.03 0.02 0.02 0.02 0.02 0.02 0.02 0.01 0.01 0.01 0.01 0.01 0.01 0.01 0.01 0.01 0.01 0.01 0.01 0.01 0.01 0.02 0.02 0.02 0.02 0.01 0.01 0.01 0.01 0.01 0.01 0.02 0.02 0.02 0.02 0.01 0.02 0.02 0.02 0.02 0.02
0.02 0.02 0.02 0.02 0.02 0.02 0.02 0.01 0.01 0.01 0.01 0.01 0.01 0.01 0.01 0.01 0.01 0.01 0.01 0.01 0.01 0.01 0.01 0.01 0.02 0.02 0.02 0.02 0.01 0.01 0.01 0.01 0.01 0.01 0.01 0.02 0.01 0.01 0.01 0.01 0.02 0.02 0.03
MSLP
1005.67 1005.50 1005.36 1005.26 1005.19 1005.16 1005.18 1005.26 1005.41 1005.64 1005.95 1006.35 1006.84 1007.39 1008.00 1008.66 1009.36 1010.07 1010.80 1011.53 1012.25 1012.94 1013.61 1014.25 1014.85 1015.43 1016.00 1016.57 1017.16 1017.78 1018.45 1019.16 1019.90 1020.65 1021.38 1022.06 1022.66 1023.16 1023.54 1023.80 1023.95 1024.00 1023.98
1006.21 1006.04 1005.86 1005.69 1005.54 1005.42 1005.35 1005.34 1005.42 1005.59 1005.85 1006.20 1006.64 1007.15 1007.73 1008.35 1009.01 1009.71 1010.43 1011.17 1011.90 1012.62 1013.32 1013.98 1014.61 1015.21 1015.79 1016.37 1016.96 1017.59 1018.26 1018.97 1019.72 1020.49 1021.25 1021.97 1022.62 1023.18 1023.62 1023.95 1024.16 1024.28 1024.31
1006.50 1006.31 1006.09 1005.86 1005.65 1005.46 1005.33 1005.29 1005.33 1005.47 1005.71 1006.04 1006.46 1006.94 1007.48 1008.07 1008.71 1009.38 1010.09 1010.83 1011.57 1012.32 1013.05 1013.75 1014.42 1015.06 1015.66 1016.26 1016.86 1017.48 1018.14 1018.85 1019.59 1020.35 1021.11 1021.85 1022.52 1023.12 1023.62 1024.01 1024.30 1024.50 1024.62
1006.56 1006.33 1006.06 1005.78 1005.52 1005.30 1005.15 1005.09 1005.14 1005.30 1005.55 1005.89 1006.31 1006.78 1007.30 1007.86 1008.47 1009.12 1009.80 1010.53 1011.28 1012.05 1012.81 1013.56 1014.27 1014.95 1015.60 1016.22 1016.83 1017.46 1018.10 1018.78 1019.50 1020.23 1020.97 1021.70 1022.38 1023.00 1023.54 1024.00 1024.37 1024.66 1024.87
1006.46 1006.17 1005.84 1005.51 1005.21 1004.97 1004.83 1004.80 1004.89 1005.10 1005.40 1005.78 1006.22 1006.70 1007.21 1007.75 1008.32 1008.94 1009.59 1010.30 1011.05 1011.82 1012.61 1013.39 1014.16 1014.88 1015.57 1016.23 1016.87 1017.50 1018.13 1018.79 1019.47 1020.16 1020.87 1021.56 1022.24 1022.87 1023.44 1023.95 1024.40 1024.77 1025.08
1006.28 1005.90 1005.51 1005.13 1004.80 1004.57 1004.46 1004.48 1004.64 1004.92 1005.30 1005.74 1006.22 1006.72 1007.23 1007.75 1008.30 1008.87 1009.49 1010.16 1010.89 1011.66 1012.47 1013.28 1014.09 1014.86 1015.60 1016.30 1016.97 1017.62 1018.25 1018.89 1019.54 1020.19 1020.86 1021.52 1022.17 1022.80 1023.39 1023.94 1024.44 1024.90 1025.30
1006.08 1005.62 1005.16 1004.74 1004.40 1004.18 1004.12 1004.21 1004.45 1004.82 1005.27 1005.78 1006.32 1006.85 1007.37 1007.88 1008.39 1008.92 1009.50 1010.14 1010.84 1011.60 1012.41 1013.25 1014.09 1014.91 1015.70 1016.46 1017.16 1017.84 1018.49 1019.12 1019.75 1020.38 1021.01 1021.64 1022.27 1022.88 1023.48 1024.05 1024.59 1025.10 1025.56
1005.93 1005.41 1004.89 1004.44 1004.10 1003.91 1003.89 1004.05 1004.37 1004.82 1005.35 1005.93 1006.52 1007.08 1007.61 1008.11 1008.59 1009.09 1009.63 1010.23 1010.91 1011.65 1012.47 1013.32 1014.20 1015.07 1015.91 1016.72 1017.48 1018.19 1018.87 1019.52 1020.15 1020.76 1021.37 1021.98 1022.58 1023.18 1023.76 1024.34 1024.89 1025.43 1025.93
1005.87 1005.31 1004.77 1004.31 1003.97 1003.81 1003.84 1004.05 1004.43 1004.95 1005.54 1006.18 1006.80 1007.39 1007.92 1008.42 1008.89 1009.36 1009.87 1010.45 1011.10 1011.85 1012.66 1013.54 1014.45 1015.36 1016.26 1017.12 1017.94 1018.70 1019.42 1020.09 1020.74 1021.35 1021.96 1022.55 1023.13 1023.70 1024.27 1024.84 1025.39 1025.93 1026.44
1005.93 1005.36 1004.82 1004.37 1004.06 1003.92 1003.98 1004.23 1004.66 1005.21 1005.84 1006.50 1007.15 1007.75 1008.29 1008.78 1009.25 1009.71 1010.22 1010.78 1011.44 1012.19 1013.02 1013.92 1014.86 1015.82 1016.77 1017.68 1018.55 1019.36 1020.12 1020.83 1021.50 1022.13 1022.73 1023.32 1023.89 1024.44 1024.99 1025.53 1026.07 1026.59 1027.10
1006.10 1005.57 1005.06 1004.63 1004.34 1004.23 1004.31 1004.58 1005.02 1005.58 1006.22 1006.89 1007.54 1008.14 1008.69 1009.18 1009.66 1010.14 1010.65 1011.23 1011.91 1012.68 1013.54 1014.47 1015.45 1016.45 1017.44 1018.40 1019.31 1020.17 1020.96 1021.70 1022.39 1023.04 1023.65 1024.24 1024.80 1025.34 1025.87 1026.38 1026.90 1027.39 1027.88
1006.38 1005.90 1005.44 1005.05 1004.79 1004.70 1004.79 1005.06 1005.49 1006.04 1006.66 1007.32 1007.95 1008.55 1009.11 1009.62 1010.11 1010.62 1011.17 1011.79 1012.50 1013.32 1014.22 1015.19 1016.20 1017.24 1018.26 1019.25 1020.20 1021.08 1021.90 1022.66 1023.37 1024.03 1024.65 1025.23 1025.79 1026.32 1026.83 1027.33 1027.82 1028.30 1028.75
1006.74 1006.32 1005.91 1005.57 1005.34 1005.26 1005.36 1005.62 1006.02 1006.55 1007.14 1007.77 1008.39 1008.99 1009.55 1010.08 1010.61 1011.17 1011.77 1012.44 1013.21 1014.08 1015.02 1016.04 1017.09 1018.15 1019.20 1020.21 1021.16 1022.06 1022.89 1023.66 1024.37 1025.04 1025.66 1026.25 1026.80 1027.33 1027.84 1028.33 1028.80 1029.26 1029.70
1007.11 1006.76 1006.41 1006.11 1005.92 1005.86 1005.95 1006.20 1006.58 1007.08 1007.64 1008.24 1008.85 1009.44 1010.02 1010.59 1011.16 1011.77 1012.44 1013.18 1014.01 1014.93 1015.93 1016.98 1018.06 1019.14 1020.20 1021.21 1022.17 1023.06 1023.88 1024.65 1025.36 1026.02 1026.65 1027.24 1027.80 1028.34 1028.85 1029.34 1029.80 1030.25 1030.68
1007.47 1007.18 1006.88 1006.63 1006.47 1006.43 1006.53 1006.77 1007.14 1007.61 1008.15 1008.74 1009.34 1009.94 1010.54 1011.14 1011.77 1012.44 1013.17 1013.98 1014.87 1015.85 1016.89 1017.97 1019.07 1020.16 1021.22 1022.22 1023.16 1024.04 1024.85 1025.60 1026.31 1026.97 1027.60 1028.20 1028.78 1029.32 1029.85 1030.35 1030.82 1031.27 1031.70
1007.77 1007.53 1007.29 1007.08 1006.96 1006.95 1007.06 1007.31 1007.68 1008.14 1008.68 1009.26 1009.87 1010.49 1011.12 1011.77 1012.45 1013.18 1013.97 1014.83 1015.78 1016.79 1017.86 1018.96 1020.07 1021.15 1022.20 1023.19 1024.12 1024.98 1025.78 1026.52 1027.22 1027.88 1028.52 1029.14 1029.73 1030.30 1030.85 1031.37 1031.86 1032.32 1032.75
1008.01 1007.82 1007.63 1007.47 1007.40 1007.42 1007.57 1007.84 1008.22 1008.70 1009.25 1009.85 1010.48 1011.13 1011.79 1012.48 1013.21 1013.98 1014.82 1015.72 1016.70 1017.74 1018.82 1019.92 1021.02 1022.10 1023.13 1024.11 1025.01 1025.86 1026.65 1027.39 1028.10 1028.77 1029.42 1030.06 1030.68 1031.28 1031.85 1032.39 1032.90 1033.37 1033.80
1008.22 1008.07 1007.94 1007.84 1007.82 1007.90 1008.09 1008.39 1008.81 1009.32 1009.89 1010.52 1011.18 1011.87 1012.57 1013.30 1014.06 1014.87 1015.73 1016.66 1017.64 1018.68 1019.75 1020.84 1021.92 1022.98 1023.99 1024.95 1025.84 1026.68 1027.47 1028.22 1028.94 1029.63 1030.31 1030.97 1031.62 1032.25 1032.85 1033.41 1033.94 1034.41 1034.83
1008.41 1008.33 1008.26 1008.23 1008.28 1008.42 1008.67 1009.02 1009.48 1010.03 1010.65 1011.31 1012.01 1012.73 1013.47 1014.23 1015.02 1015.84 1016.71 1017.64 1018.61 1019.62 1020.66 1021.72 1022.77 1023.79 1024.78 1025.72 1026.60 1027.44 1028.24 1029.00 1029.74 1030.46 1031.17 1031.86 1032.54 1033.19 1033.81 1034.39 1034.92 1035.40 1035.81
1008.62 1008.63 1008.65 1008.70 1008.83 1009.04 1009.35 1009.76 1010.27 1010.86 1011.52 1012.22 1012.96 1013.72 1014.49 1015.27 1016.08 1016.91 1017.77 1018.67 1019.61 1020.59 1021.58 1022.59 1023.59 1024.57 1025.52 1026.43 1027.31 1028.14 1028.95 1029.72 1030.48 1031.23 1031.97 1032.69 1033.39 1034.06 1034.70 1035.29 1035.82 1036.29 1036.68
1008.90 1009.00 1009.12 1009.27 1009.48 1009.77 1010.15 1010.62 1011.18 1011.81 1012.51 1013.25 1014.02 1014.81 1015.61 1016.41 1017.23 1018.06 1018.90 1019.77 1020.67 1021.58 1022.52 1023.46 1024.40 1025.32 1026.23 1027.11 1027.96 1028.79 1029.59 1030.38 1031.16 1031.92 1032.68 1033.42 1034.14 1034.82 1035.46 1036.05 1036.58 1037.03 1037.42
1009.23 1009.44 1009.67 1009.93 1010.23 1010.60 1011.04 1011.56 1012.17 1012.84 1013.58 1014.35 1015.15 1015.97 1016.79 1017.61 1018.43 1019.25 1020.07 1020.91 1021.75 1022.61 1023.47 1024.34 1025.21 1026.07 1026.92 1027.75 1028.57 1029.38 1030.17 1030.96 1031.74 1032.51 1033.28 1034.03 1034.75 1035.44 1036.08 1036.67 1037.18 1037.63 1037.99
1009.58 1009.92 1010.26 1010.62 1011.01 1011.45 1011.96 1012.53 1013.17 1013.88 1014.64 1015.44 1016.27 1017.11 1017.96 1018.79 1019.62 1020.44 1021.25 1022.05 1022.85 1023.64 1024.44 1025.23 1026.02 1026.81 1027.59 1028.37 1029.14 1029.91 1030.68 1031.45 1032.22 1032.99 1033.76 1034.50 1035.23 1035.91 1036.54 1037.12 1037.62 1038.06 1038.42
1009.91 1010.36 1010.81 1011.26 1011.74 1012.25 1012.81 1013.42 1014.10 1014.83 1015.62 1016.45 1017.30 1018.17 1019.03 1019.89 1020.73 1021.55 1022.35 1023.13 1023.89 1024.63 1025.37 1026.09 1026.81 1027.53 1028.24 1028.96 1029.67 1030.40 1031.13 1031.87 1032.62 1033.38 1034.12 1034.86 1035.57 1036.24 1036.86 1037.43 1037.93 1038.36 1038.71
1010.16 1010.71 1011.25 1011.79 1012.33 1012.90 1013.51 1014.16 1014.86 1015.62 1016.43 1017.28 1018.16 1019.05 1019.94 1020.82 1021.68 1022.51 1023.31 1024.08 1024.82 1025.53 1026.21 1026.88 1027.54 1028.19 1028.84 1029.50 1030.16 1030.83 1031.52 1032.23 1032.95 1033.67 1034.40 1035.11 1035.80 1036.46 1037.07 1037.63 1038.12 1038.54 1038.90
1010.29 1010.92 1011.53 1012.13 1012.74 1013.36 1014.00 1014.68 1015.41 1016.19 1017.02 1017.89 1018.79 1019.71 1020.63 1021.53 1022.42 1023.26 1024.07 1024.84 1025.57 1026.26 1026.92 1027.55 1028.17 1028.77 1029.37 1029.97 1030.58 1031.21 1031.86 1032.52 1033.21 1033.90 1034.59 1035.28 1035.95 1036.59 1037.18 1037.73 1038.21 1038.63 1038.98
Thickness
5429 5428 5426 5425 5423 5421 5420 5418 5417 5417 5417 5416 5416 5416 5416 5417 5417 5418 5418 5419 5419 5419 5420 5421 5422 5423 5424 5424 5423 5423 5423 5423 5425 5431 5432 5433 5433 5434 5434 5433 5434 5434 5435
5419 5417 5416 5413 5411 5409 5407 5405 5404 5404 5404 5403 5403 5403 5403 5403 5404 5404 5405 5406 5406 5407 5407 5407 5409 5411 5411 5412 5411 5411 5411 5412 5412 5415 5419 5420 5421 5421 5422 5422 5422 5422 5423
5408 5407 5404 5402 5400 5397 5395 5393 5392 5392 5392 5391 5390 5390 5390 5391 5391 5392 5392 5393 5394 5394 5394 5395 5396 5397 5398 5399 5399 5399 5399 5400 5400 5402 5405 5406 5407 5408 5409 5410 5410 5410 5411
5397 5395 5393 5392 5389 5386 5384 5382 5381 5380 5380 5379 5379 5378 5379 5379 5379 5379 5379 5380 5381 5382 5382 5382 5383 5384 5385 5386 5386 5387 5387 5387 5388 5389 5391 5392 5393 5394 5394 5395 5397 5398 5398
5386 5384 5383 5381 5378 5375 5373 5371 5370 5369 5368 5367 5367 5367 5366 5366 5367 5367 5367 5368 5368 5369 5369 5369 5370 5371 5372 5373 5374 5374 5374 5374 5375 5376 5377 5378 5379 5380 5380 5380 5381 5384 5386
5376 5374 5372 5370 5367 5365 5363 5361 5359 5357 5356 5355 5355 5355 5354 5355 5355 5355 5355 5355 5355 5356 5356 5357 5357 5358 5359 5359 5360 5361 5361 5361 5361 5362 5363 5365 5366 5366 5366 5366 5366 5369 5372
5366 5364 5362 5359 5357 5355 5352 5350 5348 5347 5345 5344 5344 5343 5344 5344 5344 5344 5344 5343 5343 5343 5343 5344 5344 5345 5345 5345 5346 5347 5347 5347 5348 5348 5349 5350 5352 5353 5353 5354 5353 5354 5356
5356 5353 5351 5349 5347 5344 5342 5340 5338 5337 5335 5333 5333 5332 5332 5332 5332 5333 5332 5332 5331 5331 5330 5331 5331 5332 5332 5332 5333 5333 5333 5334 5335 5335 5336 5337 5337 5338 5338 5339 5340 5340 5343
5345 5343 5341 5339 5337 5334 5333 5331 5329 5326 5325 5323 5322 5321 5321 5321 5321 5321 5321 5320 5320 5319 5319 5319 5319 5319 5320 5320 5321 5321 5321 5321 5322 5322 5323 5323 5323 5324 5324 5324 5325 5326 5330
5337 5334 5332 5329 5327 5325 5323 5321 5319 5317 5315 5313 5311 5310 5310 5311 5311 5311 5310 5310 5310 5309 5308 5307 5308 5308 5308 5309 5309 5308 5309 5310 5310 5310 5310 5310 5310 5310 5310 5310 5311 5311 5313
5326 5324 5321 5319 5317 5315 5312 5310 5308 5306 5304 5302 5300 5300 5300 5300 5301 5301 5301 5300 5300 5298 5298 5297 5297 5298 5298 5299 5298 5297 5298 5298 5297 5297 5297 5297 5297 5297 5297 5297 5297 5297 5299
5315 5313 5311 5309 5306 5304 5302 5299 5297 5295 5292 5291 5289 5290 5290 5289 5290 5290 5291 5291 5290 5289 5288 5288 5287 5288 5289 5288 5287 5287 5286 5285 5285 5284 5284 5284 5285 5285 5285 5285 5285 5285 5286
5304 5302 5300 5298 5295 5293 5291 5289 5286 5284 5282 5281 5280 5280 5280 5279 5279 5280 5280 5280 5279 5278 5278 5277 5277 5277 5277 5277 5275 5274 5273 5273 5273 5273 5273 5272 5271 5271 5272 5273 5274 5274 5276
5294 5292 5290 5287 5285 5282 5280 5279 5277 5275 5273 5272 5271 5271 5270 5269 5269 5269 5268 5268 5268 5267 5265 5265 5265 5265 5264 5264 5262 5261 5260 5260 5260 5260 5260 5259 5259 5259 5259 5260 5261 5262 5264
5283 5281 5279 5277 5274 5272 5270 5268 5267 5267 5265 5265 5264 5263 5261 5262 5262 5262 5261 5260 5259 5257 5255 5253 5252 5251 5251 5250 5249 5248 5248 5248 5248 5247 5247 5246 5247 5247 5247 5248 5249 5250 5251
5273 5270 5268 5266 5263 5261 5258 5257 5256 5256 5255 5255 5255 5253 5253 5254 5254 5254 5252 5252 5250 5248 5245 5242 5240 5239 5237 5237 5236 5235 5235 5235 5236 5235 5234 5234 5234 5235 5235 5236 5237 5238 5239
5262 5260 5257 5255 5252 5249 5247 5245 5244 5244 5244 5244 5243 5243 5243 5243 5244 5244 5243 5242 5239 5237 5233 5231 5229 5227 5226 5225 5224 5224 5224 5224 5224 5224 5224 5223 5223 5223 5223 5224 5225 5226 5228
5250 5249 5247 5244 5241 5238 5235 5233 5231 5230 5230 5230 5231 5231 5231 5231 5232 5232 5231 5229 5225 5223 5220 5219 5217 5216 5215 5215 5214 5214 5214 5213 5213 5213 5213 5212 5212 5212 5212 5212 5213 5213 5215
5239 5237 5236 5233 5230 5226 5224 5221 5219 5218 5217 5217 5217 5218 5218 5218 5219 5218 5217 5214 5212 5211 5209 5208 5207 5206 5206 5205 5205 5204 5204 5203 5203 5202 5202 5202 5201 5201 5201 5201 5201 5201 5202
5228 5227 5225 5221 5218 5215 5213 5211 5209 5208 5207 5206 5206 5206 5206 5205 5204 5204 5203 5202 5200 5199 5199 5198 5197 5197 5196 5196 5195 5194 5194 5193 5193 5192 5192 5191 5191 5191 5191 5190 5190 5190 5190
5218 5216 5213 5210 5207 5205 5203 5201 5200 5199 5197 5197 5196 5197 5199 5197 5197 5195 5194 5192 5191 5190 5190 5189 5188 5188 5188 5187 5186 5186 5185 5184 5183 5183 5182 5182 5181 5180 5180 5180 5179 5179 5179
5206 5204 5202 5199 5197 5194 5193 5192 5191 5189 5188 5187 5187 5186 5188 5186 5185 5185 5184 5183 5182 5182 5182 5181 5180 5180 5180 5179 5179 5178 5177 5176 5175 5174 5173 5172 5171 5171 5170 5170 5170 5169 5169
5195 5193 5190 5188 5185 5184 5182 5181 5181 5180 5180 5179 5178 5177 5177 5176 5175 5175 5175 5174 5173 5173 5173 5172 5172 5172 5172 5172 5172 5171 5170 5169 5168 5166 5165 5164 5163 5162 5161 5160 5160 5160 5160
5184 5182 5179 5177 5175 5174 5173 5172 5172 5172 5171 5170 5170 5169 5169 5168 5167 5167 5166 5166 5165 5165 5165 5165 5166 5166 5166 5165 5165 5164 5164 5163 5161 5159 5158 5156 5155 5154 5153 5152 5151 5151 5151
5172 5170 5169 5167 5166 5165 5164 5163 5163 5163 5162 5162 5161 5161 5160 5159 5159 5159 5159 5158 5158 5158 5158 5158 5159 5159 5159 5159 5158 5157 5157 5156 5154 5152 5151 5149 5147 5146 5145 5144 5143 5142 5142
5162 5160 5159 5158 5157 5157 5156 5155 5155 5155 5154 5154 5154 5153 5152 5152 5151 5151 5151 5151 5151 5151 5152 5152 5152 5152 5152 5152 5151 5151 5150 5150 5148 5146 5144 5142 5140 5139 5138 5136 5135 5135 5134